Game: Tron: Evolution
Bid: Upgrade to All Collectibles Total: $3,514.35 Goal: $3,000.00

Description
Upgrades the Tron: Evolution run category to All Collectibles.
NameAscDsc Time ReceivedAscDsc AmountAscDsc
HK - A ZeniMax Media Dev 2020-01-06T23:01:05.947607-06:00 $500.00
Saturos 2020-01-06T22:15:31.618760-06:00 $5.00
Aaeriele 2020-01-06T22:15:22.073285-06:00 $200.00
pliskinLD 2020-01-06T22:14:36.697307-06:00 $25.00
Minisalves 2020-01-06T22:13:23.060046-06:00 $100.00
myutopia 2020-01-06T22:07:15.730156-06:00 $20.00
PandaraTrox 2020-01-06T22:07:11.405545-06:00 $25.00
TheFirstFalcon 2020-01-06T22:05:24.982390-06:00 $15.00
(Anonymous) 2020-01-06T22:05:17.165900-06:00 $15.00
Matthew H 2020-01-06T22:04:55.726230-06:00 $10.00
GreySkullPowerCompany 2020-01-06T22:04:48.515491-06:00 $15.00
(Anonymous) 2020-01-06T22:04:45.737685-06:00 $20.00
kamikazegrannie 2020-01-06T21:59:21.703039-06:00 $25.00
CGGTR 2020-01-06T21:58:14.098080-06:00 $10.00
(Anonymous) 2020-01-06T21:55:56.932850-06:00 $10.00
SushiElemental 2020-01-06T21:54:29.038561-06:00 $20.00
EdgeC 2020-01-06T21:53:59.789740-06:00 $25.00
JStarrG 2020-01-06T21:49:39.655468-06:00 $20.00
Coyote Seattle 2020-01-06T21:45:19.935170-06:00 $25.00
Raphael 2020-01-06T21:41:14.343032-06:00 $20.00
(Anonymous) 2020-01-06T21:38:35.496393-06:00 $25.00
The_Hunter 2020-01-06T21:33:39.007867-06:00 $15.00
Silenus 2020-01-06T21:31:22.515475-06:00 $15.00
(Anonymous) 2020-01-06T21:28:37.747193-06:00 $5.00
St. John Johnson 2020-01-06T21:28:02.429620-06:00 $20.00
drink water 2020-01-06T21:26:32.453976-06:00 $8.00
Jacoblucky13 2020-01-06T21:24:12.808205-06:00 $10.00
Raioh 2020-01-06T20:12:23.285460-06:00 $25.00
(Anonymous) 2020-01-06T19:34:43.462167-06:00 $25.00
Kittoradra 2020-01-06T19:21:35.982449-06:00 $20.00
Ben Kimball 2020-01-06T19:19:49.451668-06:00 $50.00
this_is_n8_ 2020-01-06T19:08:17.630968-06:00 $25.00
(Anonymous) 2020-01-06T19:07:30.259963-06:00 $50.00
jebrulio 2020-01-06T19:03:59.399807-06:00 $5.00
Lord Byron II 2020-01-06T18:58:56.658125-06:00 $25.00
kineticmedic 2020-01-06T18:56:47.674997-06:00 $25.00
(Anonymous) 2020-01-06T18:52:10.080896-06:00 $25.00
BlizzardMayne 2020-01-06T18:50:20.272618-06:00 $25.00
(Anonymous) 2020-01-06T17:18:33.687878-06:00 $15.00
Abbelhans 2020-01-06T16:39:02.865052-06:00 $5.00
Courtney Rayle 2020-01-06T16:37:13.554733-06:00 $50.00
Jamie B 2020-01-06T16:32:04.205971-06:00 $25.00
Gallium Antimonide 2020-01-06T16:10:46.979278-06:00 $10.00
Xefibo 2020-01-06T15:53:19.431997-06:00 $25.00
(Anonymous) 2020-01-06T15:07:21.607813-06:00 $15.00
Cats777 2020-01-06T14:34:46.891982-06:00 $10.00
PikachuPhD 2020-01-06T14:30:27.760693-06:00 $25.00
Crowbarmoe 2020-01-06T14:28:36.270077-06:00 $250.00
SalmonBuffalo 2020-01-06T14:21:57.828178-06:00 $10.00
C-Squared 2020-01-06T14:21:35.777180-06:00 $5.00

|< >|

Back to Bid Index

Back to Main Index

Running on Django with Python
Python code by UraniumAnchor, SMK, and jdeng
CSS by Cool Matty